sat.trackr.live / text

‹ back to catalog

STARLINK-30318

NORAD 57711 · 2023-129P

PAYLOAD ACTIVE UNKNOWN

§ Identity

Operator
Country
US
Launch date
2023-08-27
Launch site
AFETR
Launch vehicle
Mass (kg)
RCS (m²)

Purposes: comms

External: N2YO · Heavens-Above · Gunter

§ Orbital elements

Epoch: 2026-05-25T02:39:55.175328Z

Period
94.27 min
Inclination
43.0058°
Eccentricity
0.0001756
Mean motion
15.27578036 rev/d
Perigee alt
481.9 km
Apogee alt
484.3 km
Semi-major
6,861.2 km
B*
1.0765e-5
RAAN
46.0127°
Arg perigee
254.9529°
Mean anomaly
105.1128°
Rev number
15,223

§ Raw data

STARLINK-303181 57711U 23129P   26145.11105527  .00000034  00000+0  10765-4 0  99972 57711  43.0058  46.0127 0001756 254.9529 105.1128 15.27578036152233

JSON: /api/v1/satellites/57711 · /tle

For live sub-satellite position, see the globe view (requires WebGL).

§ Visibility from observer

Set your observer location to see the next 7 days of passes ≥ 10°. The values pass through the URL so the page stays shareable.

No JS? Fill the form by hand. The geolocation button needs JavaScript.